[[{"header":{"parameterUnit":"m.s-1","parameterCategory":1,"la1":30.2992,"la2":30.254,"lo1":-89.0895,"lo2":-89.0443,"dy":0.0025,"dx":0.0025,"nx":19,"ny":19,"refTime":"2026-05-20T21:00:00:Z","depth":0,"parameterNumber":2,"parameterNumberName":"U-component_of_WINDS"},"data":[0,0,0,-0.9934,-0.9935,-0.9997,-0.9998,-1.0066,-1.0066,0,0,0,0,0,0,0,0,0,0,0,-0.9907,-0.9907,-0.9934,-0.9935,-0.9997,-0.9998,-1.0066,-1.0066,0,0,0,0,0,0,0,0,0,0,0,-0.9907,-0.9907,-0.9907,-0.9935,-0.9997,-0.9998,-1.0066,-1.0023,0,0,0,0,0,0,0,0,0,0,-0.9965,-0.9931,-0.9907,-0.9907,-0.9936,-0.9997,-0.9998,-1.0021,-1.0026,-1.0032,0,-1.0034,0,-1.0051,-1.007,-1.007,0,0,0,-0.9942,-0.9927,-0.9952,-0.9907,-0.9936,-0.9997,-0.9971,-1.0024,-1.0029,-1.0038,-1.0036,-1.0038,-1.0052,-1.007,-1.0071,-1.0082,-1.0082,0,0,-0.9938,-0.9914,-0.9948,-0.9955,-0.9942,-0.9969,-0.9973,-1.0027,-1.0023,-1.0036,-1.004,-1.0054,-1.0071,-1.0071,-1.0082,-1.0082,0,0,0,-0.9924,-0.9911,-0.9935,-0.9951,-0.9963,-0.9971,-0.9975,-1.0021,-1.0031,-1.0041,-1.0054,-1.0071,-1.0072,-1.0082,-1.0082,-1.0044,0,0,0,-0.9922,-0.9903,-0.9933,-0.9918,-0.9962,-0.9993,-0.9967,-1.0027,-1.0034,-1.0054,-1.0071,-1.0072,-1.0083,-1.0082,-1.0046,-1.003,0,0,0,-0.9906,-0.9901,-0.9907,-0.9917,-0.9943,-0.9992,-1.0005,-1.0029,-1.0041,-1.007,-1.0073,-1.0083,-1.0082,-1.0047,-1.0033,-1.0025,0,0,0,-0.9882,-0.9873,-0.9906,-0.9902,-0.9942,-0.9968,-1.0005,-1.0026,-1.0047,-1.0071,-1.0083,-1.0082,-1.0048,-1.0034,-1.0026,-1.0014,-1.0006,0,0,-0.9858,-0.987,-0.9869,-0.99,-0.9914,-0.996,-0.9969,-1.0012,-1.0038,-1.0066,-1.0067,-1.0045,-1.0033,-1.0025,-0.9974,-0.9967,0,0,0,-0.9853,-0.9853,-0.9862,-0.9879,-0.991,-0.9936,-0.998,-0.9996,-1.0021,-1.0047,-1.0042,-1.0035,-1.0032,-1.0027,-1.0021,-1.002,-1.0079,-1.0079,-1.0079,-0.9784,-0.9816,-0.9818,-0.9858,-0.9874,-0.9919,-0.9936,-0.9966,-0.9995,-0.9993,-1.0001,-0.9966,-0.9959,-0.9955,-0.9953,-0.9998,-0.9998,-0.9998,-0.9998,-0.9751,-0.9755,-0.9793,-0.9808,-0.9843,-0.9857,-0.99,-0.992,-0.9939,-0.9962,-0.9961,-0.9983,-0.9947,-0.9947,-0.9995,-0.9996,-0.9996,-0.9996,-0.9996,-0.9709,-0.9716,-0.9735,-0.9763,-0.9781,-0.9823,-0.9839,-0.9871,-0.9902,-0.99,-0.9912,-0.9913,-0.9917,-0.9904,-0.9904,-0.9904,-0.9903,-0.9903,-0.9903,-0.9657,-0.9679,-0.9687,-0.9719,-0.9735,-0.9759,-0.9804,-0.9821,-0.9847,-0.987,-0.987,-0.9899,-0.9937,-0.9946,-0.9902,-0.9902,-0.9902,-0.9902,-0.9902,-0.961,-0.9626,-0.9638,-0.9653,-0.9694,-0.971,-0.9751,-0.9781,-0.98,-0.9807,-0.9837,-0.986,-0.9875,-0.9879,-0.9886,-0.9829,-0.9829,-0.9829,-0.9829,-0.9574,-0.9584,-0.9604,-0.9626,-0.9651,-0.9689,-0.9703,-0.9739,-0.9778,-0.9792,-0.9805,-0.9818,-0.9821,-0.9834,-0.984,-0.9847,-0.9781,-0.9781,-0.9781,-0.9547,-0.9561,-0.9566,-0.9603,-0.9637,-0.9666,-0.968,-0.9705,-0.9754,-0.978,-0.9803,-0.9805,-0.9826,-0.9831,-0.9857,-0.9864,-0.9878,0,0]},{"header":{"parameterUnit":"m.s-1","parameterCategory":1,"la1":30.2992,"la2":30.254,"lo1":-89.0895,"lo2":-89.0443,"dy":0.0025,"dx":0.0025,"nx":19,"ny":19,"refTime":"2026-05-20T21:00:00:Z","depth":0,"parameterNumber":3,"parameterNumberName":"V-component_of_WINDS"},"data":[0,0,0,5.041,5.0412,5.0504,5.0504,5.0635,5.0636,0,0,0,0,0,0,0,0,0,0,0,5.0393,5.0394,5.0409,5.0412,5.0504,5.0504,5.0634,5.0636,0,0,0,0,0,0,0,0,0,0,0,5.0392,5.0394,5.0395,5.0412,5.0504,5.0504,5.0634,5.0559,0,0,0,0,0,0,0,0,0,0,5.0467,5.0463,5.0393,5.0395,5.0413,5.0504,5.0504,5.0556,5.0564,5.0599,0,5.0635,0,5.0638,5.0646,5.0646,0,0,0,5.0403,5.0456,5.0472,5.0395,5.0414,5.0504,5.046,5.056,5.057,5.061,5.0637,5.0642,5.064,5.0647,5.0647,5.0884,5.0885,0,0,5.0398,5.0414,5.0465,5.0478,5.0468,5.0457,5.0463,5.0566,5.0595,5.0638,5.0644,5.0642,5.0648,5.0649,5.0883,5.0884,0,0,0,5.039,5.0411,5.0424,5.0473,5.0489,5.046,5.0467,5.059,5.0593,5.0646,5.0644,5.0648,5.065,5.0881,5.0883,5.0974,0,0,0,5.0386,5.0406,5.0422,5.0433,5.0488,5.0542,5.0489,5.0586,5.0597,5.0643,5.0648,5.0652,5.0879,5.0882,5.0968,5.1015,0,0,0,5.0383,5.0405,5.0423,5.0433,5.0474,5.0539,5.0548,5.0588,5.0597,5.0646,5.0652,5.0878,5.0882,5.0963,5.1006,5.1082,0,0,0,5.0384,5.0501,5.0424,5.0554,5.0473,5.0596,5.0547,5.0637,5.0691,5.0649,5.088,5.0883,5.0961,5.1,5.1077,5.115,5.1183,0,0,5.054,5.052,5.0595,5.0529,5.0671,5.0581,5.0734,5.0766,5.0755,5.0841,5.0846,5.097,5.1005,5.1081,5.1356,5.1382,0,0,0,5.065,5.0704,5.0738,5.0791,5.0821,5.0849,5.0857,5.0868,5.0941,5.0803,5.1018,5.1038,5.1082,5.1116,5.1138,5.1175,5.09,5.0899,5.0899,5.0894,5.0876,5.0998,5.0991,5.1042,5.105,5.1089,5.1106,5.107,5.1121,5.1147,5.1316,5.1357,5.1373,5.1412,5.1183,5.1184,5.1184,5.1184,5.1122,5.1196,5.1147,5.125,5.1228,5.1312,5.1323,5.1295,5.1369,5.1295,5.1333,5.1255,5.1402,5.1435,5.1191,5.119,5.1189,5.1188,5.1188,5.1281,5.1313,5.1327,5.1402,5.146,5.1447,5.1521,5.1498,5.1476,5.1513,5.1538,5.1537,5.1532,5.1527,5.1527,5.1528,5.1528,5.1529,5.1529,5.144,5.1453,5.152,5.1561,5.1592,5.1629,5.1637,5.1665,5.1691,5.1668,5.1668,5.1628,5.1421,5.1369,5.1538,5.1537,5.1536,5.1535,5.1534,5.168,5.1622,5.1725,5.1757,5.1802,5.1862,5.1832,5.1892,5.1912,5.1949,5.19,5.1751,5.1728,5.1711,5.1668,5.1904,5.1904,5.1904,5.1904,5.1814,5.1801,5.1901,5.1953,5.2,5.1983,5.2098,5.2104,5.2101,5.2112,5.2074,5.2016,5.1999,5.1986,5.1962,5.1922,5.2218,5.2218,5.2218,5.1961,5.1951,5.2055,5.2054,5.2087,5.2116,5.2224,5.2283,5.2267,5.2231,5.212,5.2107,5.2012,5.1982,5.1945,5.1909,5.1835,0,0]}]]